STARLINK-2314, 47788

Orbit data source: Space-Track

STARLINK-2314, 47788 is a payload satellite owned by SpaceX/Seattle (US) in LEO that was launched on Thu, 11 Mar 2021 UTC via an FALCON 9 launch vehicle from the Air Force Eastern Test Range (AFETR). Payload-class satellites include a variety of spacecraft equipped with specific instruments for various scientific and technological missions. These include communications satellites like Starlink; space stations such as the ISS; scientific satellites like the Hubble; Earth observation satellites from companies like Planet Labs, Umbra, and HawkEye 360; GPS; miniature CubeSats for education and research; and military/defense satellites.

Loading next visibility...
Identifier
47788, 2021-018B
Orbit
LEO
Country
Flag of USUS
Related business
Manufacturer
SpaceX/Seattle
Mission
Operational Commercial Communications
Bus & Motor
STARLINK, Unknown motor
Mass
260 kg wet, ~248 kg dry
Launch date (UTC)
2021-03-11 (5 years ago)
Launch vehicle
FALCON 9
Launch site
Air Force Eastern Test Range (AFETR)
Object type
Payload
Rocket body
Debris
Shape & HBR
Box + 1 Pan, 10.1 m
Radar Cross Section
13.562 m², Large (>1 m²)

Expand to show TLE details & history
Last TLE update: 17 hours ago

TLE from 17 hours ago
0 STARLINK-2314
1 47788U 21018B   25292.06168411  .00006353  00000-0  44490-3 0  9994
2 47788  53.0522 142.4125 0001439  86.6008 273.5145 15.06410312255616
Epoch: 2025-10-19T01:28Z
TLE epoch observation values (Epoch: 2025-10-19T01:28:49.507Z)
Latitude
-0.00005°
Longitude
92.42243°
Altitude
547.998 km
Speed
7.589 km/s
True Right ascension
09h 29m 38s
True Declination
0° 00' 00"
Sunlit
Object was in daylight at epoch
Visualization orbit readout
Latitude
Unknown
Longitude
Unknown
Altitude
Unknown
Speed
Unknown
Apparent Right ascension
Unknown
Apparent Declination
Unknown
Sunlit
N/A
Visualization observer readout
Local Sidereal Time
13:27:38
Azimuth
Unknown
Elevation
Unknown
Doppler factor
Unknown
Orbital elements
Apogee altitude
548.448 km
Perigee altitude
546.454 km
Semi-major axis
6,925.588 km
Eccentricity
0.00014
Inclination
53.0522°
RAAN
142.4125°
Arg. of periapsis
86.6008°
True anomaly
273.49804°
Mean anomaly
273.5145°
Eccentric anomaly
273.50627°
Mean motion
3.76581 °/min
Orbital period
95.6 mins
BSTAR
0.0004449
Loading maneuver chart data...
Computing Atmospheric mass density...
Loading historical data...
Loading historical data...
Loading historical data...
Loading historical data...
Loading historical data...
Loading historical data...
Loading historical data...

Documentation

Showing up to 5 results
|